QPF
0.00 0.00 0.00 0.00 0.00 0.00 0.00 0.00 0.00 0.00 0.00 0.02 0.00 0.00 0.00 0.00 0.00 0.00 0.00 0.00 0.00 0.00 0.00 0.00 0.00 0.00 0.00 0.00 0.00 0.00 0.00 0.00 0.02 0.01 0.00 0.03 0.00 0.00 0.00 0.00 0.00 0.00 0.00 0.00
0.00 0.00 0.00 0.00 0.00 0.00 0.00 0.00 0.00 0.01 0.00 0.01 0.00 0.00 0.00 0.01 0.00 0.00 0.00 0.00 0.00 0.00 0.00 0.00 0.00 0.00 0.00 0.00 0.00 0.00 0.00 0.00 0.00 0.00 0.00 0.00 0.00 0.00 0.00 0.00 0.01 0.01 0.00 0.01
0.00 0.00 0.00 0.00 0.00 0.00 0.00 0.00 0.00 0.00 0.00 0.01 0.00 0.02 0.00 0.01 0.01 0.00 0.00 0.00 0.00 0.00 0.00 0.00 0.00 0.00 0.00 0.00 0.00 0.00 0.00 0.00 0.00 0.00 0.00 0.00 0.00 0.01 0.02 0.00 0.02 0.00 0.00 0.00
0.00 0.00 0.00 0.00 0.00 0.00 0.00 0.00 0.00 0.00 0.00 0.00 0.00 0.00 0.00 0.00 0.00 0.00 0.00 0.00 0.00 0.00 0.00 0.00 0.01 0.00 0.00 0.00 0.00 0.00 0.00 0.00 0.00 0.00 0.00 0.00 0.00 0.00 0.00 0.00 0.01 0.00 0.00 0.00
0.00 0.00 0.00 0.00 0.00 0.00 0.00 0.00 0.00 0.00 0.00 0.00 0.00 0.00 0.01 0.02 0.00 0.00 0.00 0.00 0.00 0.00 0.00 0.00 0.01 0.00 0.00 0.00 0.00 0.00 0.00 0.00 0.00 0.00 0.00 0.00 0.00 0.00 0.00 0.00 0.00 0.00 0.00 0.00
0.00 0.00 0.00 0.00 0.00 0.00 0.00 0.00 0.00 0.00 0.00 0.00 0.00 0.00 0.01 0.01 0.02 0.01 0.00 0.00 0.00 0.00 0.00 0.00 0.00 0.00 0.00 0.00 0.00 0.00 0.00 0.00 0.00 0.00 0.00 0.00 0.00 0.00 0.00 0.00 0.00 0.00 0.00 0.00
0.00 0.00 0.00 0.00 0.00 0.00 0.00 0.00 0.00 0.00 0.00 0.00 0.00 0.00 0.02 0.02 0.01 0.00 0.02 0.00 0.00 0.00 0.00 0.00 0.00 0.00 0.00 0.00 0.01 0.00 0.00 0.00 0.00 0.00 0.00 0.00 0.00 0.00 0.00 0.00 0.00 0.00 0.00 0.00
0.00 0.00 0.00 0.00 0.00 0.00 0.00 0.00 0.00 0.00 0.00 0.00 0.00 0.00 0.02 0.05 0.02 0.01 0.02 0.02 0.00 0.00 0.00 0.00 0.00 0.00 0.00 0.00 0.00 0.00 0.00 0.00 0.00 0.00 0.00 0.00 0.00 0.00 0.00 0.00 0.00 0.00 0.00 0.00
0.00 0.00 0.00 0.00 0.00 0.00 0.00 0.00 0.00 0.00 0.00 0.00 0.00 0.00 0.00 0.02 0.00 0.02 0.03 0.07 0.07 0.00 0.00 0.00 0.00 0.00 0.00 0.00 0.00 0.00 0.00 0.00 0.00 0.00 0.00 0.00 0.00 0.00 0.00 0.01 0.00 0.00 0.00 0.00
0.00 0.00 0.00 0.00 0.00 0.00 0.00 0.00 0.00 0.00 0.00 0.00 0.00 0.00 0.00 0.00 0.00 0.01 0.05 0.09 0.06 0.02 0.00 0.00 0.00 0.00 0.00 0.00 0.01 0.02 0.00 0.00 0.00 0.00 0.00 0.00 0.00 0.00 0.00 0.02 0.00 0.00 0.00 0.00
0.00 0.00 0.00 0.00 0.00 0.00 0.00 0.00 0.00 0.00 0.00 0.00 0.00 0.00 0.00 0.00 0.00 0.00 0.03 0.07 0.07 0.03 0.00 0.00 0.00 0.00 0.00 0.00 0.00 0.02 0.00 0.00 0.00 0.00 0.00 0.00 0.00 0.00 0.00 0.01 0.00 0.00 0.00 0.00
0.00 0.00 0.00 0.00 0.00 0.00 0.00 0.00 0.00 0.00 0.00 0.00 0.00 0.00 0.00 0.00 0.00 0.00 0.00 0.04 0.11 0.05 0.02 0.02 0.03 0.05 0.02 0.01 0.01 0.07 0.09 0.01 0.00 0.00 0.00 0.00 0.00 0.00 0.00 0.00 0.00 0.00 0.00 0.00
0.00 0.00 0.00 0.00 0.00 0.00 0.00 0.00 0.00 0.00 0.00 0.00 0.00 0.00 0.00 0.00 0.00 0.00 0.00 0.01 0.03 0.09 0.13 0.05 0.04 0.07 0.05 0.02 0.04 0.17 0.20 0.22 0.17 0.07 0.01 0.00 0.00 0.00 0.00 0.00 0.00 0.00 0.00 0.00
0.00 0.00 0.00 0.00 0.00 0.00 0.00 0.00 0.00 0.00 0.00 0.00 0.00 0.00 0.00 0.00 0.00 0.00 0.00 0.09 0.17 0.19 0.28 0.20 0.14 0.13 0.16 0.17 0.23 0.19 0.13 0.18 0.21 0.20 0.14 0.07 0.02 0.00 0.00 0.00 0.00 0.00 0.00 0.01
0.00 0.00 0.00 0.00 0.00 0.00 0.00 0.00 0.00 0.00 0.00 0.00 0.00 0.00 0.00 0.00 0.00 0.00 0.04 0.08 0.17 0.21 0.14 0.14 0.18 0.14 0.20 0.18 0.13 0.13 0.09 0.08 0.14 0.16 0.12 0.09 0.08 0.05 0.03 0.01 0.01 0.00 0.00 0.00
0.00 0.00 0.00 0.00 0.00 0.00 0.00 0.00 0.00 0.00 0.00 0.00 0.00 0.00 0.00 0.00 0.00 0.02 0.07 0.10 0.13 0.12 0.04 0.01 0.02 0.04 0.06 0.08 0.05 0.02 0.04 0.05 0.10 0.14 0.13 0.10 0.08 0.05 0.05 0.05 0.07 0.07 0.04 0.01
0.00 0.00 0.00 0.00 0.00 0.00 0.00 0.00 0.00 0.00 0.00 0.00 0.00 0.00 0.00 0.00 0.02 0.04 0.08 0.02 0.02 0.11 0.10 0.03 0.00 0.01 0.01 0.00 0.00 0.00 0.01 0.01 0.02 0.07 0.09 0.09 0.08 0.06 0.04 0.03 0.07 0.07 0.08 0.12
0.00 0.00 0.00 0.00 0.00 0.00 0.00 0.00 0.00 0.00 0.00 0.00 0.00 0.00 0.00 0.00 0.00 0.01 0.00 0.00 0.00 0.01 0.03 0.00 0.00 0.00 0.00 0.00 0.00 0.00 0.02 0.05 0.02 0.00 0.00 0.00 0.06 0.13 0.12 0.09 0.08 0.04 0.07 0.03
0.00 0.00 0.00 0.00 0.00 0.00 0.00 0.00 0.00 0.00 0.01 0.00 0.00 0.00 0.00 0.01 0.02 0.00 0.00 0.00 0.00 0.00 0.00 0.00 0.00 0.00 0.00 0.00 0.00 0.00 0.00 0.01 0.05 0.02 0.00 0.01 0.05 0.09 0.16 0.19 0.19 0.12 0.05 0.02
0.00 0.00 0.00 0.00 0.00 0.00 0.00 0.00 0.00 0.00 0.01 0.00 0.00 0.00 0.00 0.00 0.02 0.01 0.00 0.00 0.00 0.00 0.00 0.00 0.00 0.00 0.00 0.00 0.00 0.00 0.00 0.00 0.00 0.00 0.00 0.00 0.06 0.09 0.08 0.18 0.24 0.20 0.17 0.12
0.00 0.00 0.00 0.00 0.00 0.00 0.00 0.00 0.00 0.00 0.00 0.00 0.00 0.00 0.00 0.00 0.00 0.00 0.00 0.00 0.00 0.00 0.00 0.00 0.00 0.00 0.00 0.00 0.00 0.00 0.00 0.00 0.01 0.04 0.00 0.00 0.00 0.06 0.16 0.13 0.14 0.18 0.19 0.17
0.00 0.00 0.00 0.00 0.00 0.00 0.00 0.00 0.00 0.00 0.01 0.03 0.03 0.02 0.00 0.00 0.00 0.00 0.00 0.00 0.00 0.00 0.00 0.00 0.00 0.00 0.00 0.00 0.00 0.00 0.00 0.00 0.00 0.05 0.01 0.00 0.00 0.02 0.04 0.06 0.06 0.06 0.06 0.06
0.00 0.00 0.00 0.00 0.00 0.00 0.00 0.00 0.00 0.01 0.02 0.04 0.01 0.00 0.00 0.00 0.00 0.00 0.00 0.00 0.00 0.00 0.00 0.00 0.00 0.00 0.00 0.00 0.00 0.00 0.00 0.00 0.00 0.00 0.02 0.00 0.00 0.00 0.00 0.00 0.03 0.03 0.02 0.02
0.00 0.00 0.00 0.00 0.00 0.00 0.00 0.00 0.00 0.00 0.01 0.03 0.01 0.01 0.00 0.00 0.00 0.00 0.00 0.00 0.00 0.00 0.00 0.00 0.00 0.00 0.00 0.00 0.00 0.00 0.00 0.00 0.00 0.01 0.01 0.00 0.00 0.00 0.00 0.00 0.00 0.00 0.00 0.00
0.00 0.00 0.00 0.00 0.00 0.00 0.01 0.01 0.00 0.00 0.00 0.00 0.00 0.00 0.00 0.00 0.00 0.00 0.00 0.00 0.00 0.00 0.00 0.00 0.00 0.00 0.00 0.00 0.00 0.00 0.00 0.00 0.00 0.01 0.01 0.01 0.00 0.00 0.00 0.00 0.00 0.00 0.00 0.00
0.00 0.00 0.00 0.00 0.00 0.00 0.00 0.00 0.00 0.00 0.00 0.00 0.00 0.00 0.00 0.00 0.00 0.00 0.00 0.00 0.00 0.00 0.00 0.00 0.00 0.00 0.00 0.00 0.00 0.00 0.00 0.00 0.00 0.00 0.00 0.00 0.00 0.00 0.00 0.00 0.00 0.00 0.00 0.00
MSLP
1008.14 1009.08 1009.15 1008.78 1008.65 1008.79 1009.25 1009.47 1010.34 1010.61 1010.90 1011.48 1011.49 1011.43 1011.90 1012.38 1012.71 1012.70 1013.14 1013.44 1013.36 1013.28 1013.39 1013.67 1014.38 1014.98 1015.41 1015.67 1016.21 1016.32 1016.74 1017.20 1017.75 1018.23 1018.51 1018.73 1018.47 1018.42 1018.71 1018.44 1018.51 1018.70 1018.91 1019.05
1008.77 1008.77 1008.17 1008.05 1008.07 1008.28 1008.36 1008.87 1009.92 1010.00 1010.31 1010.80 1011.06 1011.25 1011.51 1012.01 1012.36 1012.30 1012.69 1012.80 1013.28 1013.62 1013.43 1013.85 1014.32 1014.72 1015.08 1015.51 1015.97 1016.40 1016.74 1017.08 1017.47 1017.82 1017.97 1018.03 1018.29 1018.31 1018.23 1018.39 1018.63 1018.83 1018.79 1018.93
1008.39 1007.41 1007.11 1007.56 1007.24 1007.37 1007.24 1007.80 1009.04 1009.75 1009.72 1010.44 1010.78 1011.45 1011.72 1011.97 1012.24 1012.51 1012.71 1012.67 1012.59 1012.87 1013.23 1013.80 1014.24 1014.52 1014.83 1015.26 1015.71 1016.06 1016.58 1016.77 1017.16 1017.44 1017.74 1017.92 1018.13 1018.22 1018.67 1018.97 1018.95 1018.68 1018.67 1018.80
1007.54 1006.28 1006.52 1006.45 1006.43 1006.53 1006.85 1007.19 1008.10 1009.13 1009.72 1010.35 1010.57 1011.55 1011.55 1011.67 1012.02 1012.28 1012.41 1012.27 1012.36 1012.67 1012.92 1013.55 1013.97 1014.31 1014.50 1014.77 1015.18 1015.67 1016.08 1016.59 1016.87 1017.32 1017.60 1017.94 1018.33 1018.61 1018.69 1018.77 1018.77 1018.73 1018.56 1018.72
1006.57 1005.86 1005.68 1005.54 1005.08 1005.36 1005.87 1006.28 1007.24 1008.24 1009.44 1010.17 1010.92 1011.71 1011.22 1011.44 1011.83 1011.63 1011.79 1012.08 1012.17 1012.37 1012.43 1012.74 1013.21 1013.81 1014.06 1014.59 1014.97 1015.41 1016.02 1016.47 1016.61 1017.04 1017.27 1017.72 1018.22 1018.25 1018.25 1018.59 1018.64 1018.66 1018.48 1018.54
1005.85 1004.93 1004.90 1004.50 1004.41 1004.75 1005.64 1006.62 1008.07 1009.22 1010.50 1011.37 1011.41 1011.97 1011.69 1012.27 1012.34 1011.48 1011.70 1011.62 1011.80 1011.96 1012.38 1012.54 1013.01 1013.29 1013.97 1014.37 1014.89 1015.19 1015.82 1016.26 1016.47 1016.77 1017.09 1017.40 1017.98 1018.38 1018.48 1018.58 1018.60 1018.56 1018.43 1018.72
1005.80 1005.08 1004.50 1004.12 1004.45 1004.84 1005.72 1007.77 1009.55 1011.08 1011.96 1012.21 1011.66 1012.22 1012.40 1012.16 1011.79 1011.79 1011.13 1011.17 1011.12 1011.53 1011.93 1012.38 1012.88 1013.12 1013.65 1014.12 1014.68 1015.18 1015.65 1016.24 1016.39 1016.66 1017.02 1017.17 1017.65 1018.02 1018.09 1018.29 1018.35 1018.39 1018.57 1018.68
1006.50 1005.29 1004.43 1004.08 1004.52 1005.19 1006.27 1007.79 1009.63 1011.15 1012.67 1012.42 1011.78 1011.89 1012.07 1012.54 1012.50 1011.78 1011.58 1011.18 1011.05 1011.11 1011.52 1011.81 1012.38 1012.61 1013.03 1013.64 1014.13 1014.73 1015.13 1015.88 1016.29 1016.42 1016.81 1017.21 1017.44 1017.51 1017.61 1017.63 1017.90 1018.02 1018.23 1018.20
1006.03 1005.33 1004.16 1004.06 1004.36 1005.15 1006.26 1007.57 1008.78 1010.73 1012.42 1012.90 1013.04 1012.26 1012.56 1012.29 1012.31 1012.68 1012.60 1012.40 1012.51 1012.15 1011.78 1011.57 1011.92 1012.28 1012.61 1013.09 1013.40 1014.01 1014.77 1015.30 1015.83 1015.94 1016.29 1016.78 1017.12 1017.47 1017.42 1017.51 1017.77 1017.75 1017.95 1017.91
1005.61 1005.89 1005.21 1004.71 1004.97 1005.72 1006.26 1007.55 1009.29 1011.42 1013.39 1014.07 1013.88 1013.47 1013.05 1012.84 1013.28 1013.42 1013.29 1013.42 1013.01 1012.19 1011.65 1011.53 1011.41 1011.98 1012.16 1012.38 1012.80 1013.69 1014.40 1014.88 1015.27 1015.80 1015.84 1016.13 1016.64 1016.93 1017.20 1017.60 1017.65 1017.55 1017.57 1017.54
1005.57 1006.48 1006.85 1006.12 1007.20 1007.24 1007.26 1008.32 1010.39 1012.43 1013.83 1014.51 1014.65 1014.02 1013.12 1013.56 1013.96 1013.64 1013.08 1013.08 1012.90 1012.46 1011.59 1010.93 1011.16 1011.25 1011.77 1012.32 1012.53 1013.35 1014.01 1014.85 1015.12 1015.47 1015.80 1015.91 1016.17 1016.56 1016.87 1017.26 1017.42 1017.32 1017.42 1017.28
1006.08 1007.49 1008.44 1008.39 1007.63 1007.38 1007.53 1008.57 1010.16 1012.44 1014.10 1014.69 1014.61 1013.68 1012.99 1013.42 1013.73 1013.54 1012.96 1012.33 1011.69 1012.31 1011.49 1010.57 1010.60 1011.54 1012.23 1012.30 1012.30 1012.75 1013.47 1014.17 1014.73 1014.92 1015.56 1015.92 1015.85 1016.05 1016.53 1016.78 1017.00 1017.25 1017.43 1017.47
1006.33 1008.08 1009.19 1008.97 1008.56 1008.00 1007.96 1008.57 1009.53 1011.26 1012.85 1014.23 1014.61 1013.41 1012.73 1013.02 1013.77 1013.50 1012.45 1012.03 1011.78 1011.49 1012.18 1011.27 1011.40 1012.27 1012.36 1012.94 1012.79 1013.11 1013.62 1014.27 1014.72 1015.14 1015.12 1015.70 1016.01 1015.99 1016.08 1016.30 1016.49 1016.80 1017.05 1017.17
1006.04 1008.32 1009.26 1009.22 1008.69 1008.07 1008.26 1008.54 1009.27 1010.64 1012.45 1013.65 1013.65 1012.98 1012.57 1013.24 1013.53 1013.72 1012.95 1011.97 1011.65 1012.50 1012.47 1012.27 1011.81 1012.52 1013.16 1013.48 1013.62 1013.47 1013.76 1014.32 1014.79 1015.39 1015.40 1015.76 1016.02 1015.82 1015.76 1015.93 1016.14 1016.25 1016.45 1016.83
1006.72 1008.38 1008.71 1008.69 1008.04 1007.96 1007.89 1008.31 1009.09 1010.09 1011.24 1012.40 1012.87 1012.79 1012.15 1012.48 1012.93 1013.07 1012.96 1012.73 1012.37 1012.85 1012.68 1012.80 1012.79 1012.89 1012.19 1013.12 1013.79 1014.28 1014.63 1014.00 1013.93 1015.06 1015.65 1015.50 1015.93 1015.95 1015.47 1015.37 1015.50 1015.72 1016.00 1016.29
1007.36 1008.48 1008.71 1008.82 1007.85 1007.88 1007.97 1008.18 1008.57 1009.25 1010.33 1011.07 1011.46 1011.90 1011.67 1012.15 1012.37 1012.54 1012.50 1012.37 1013.22 1012.91 1012.96 1013.00 1012.92 1012.43 1013.31 1013.81 1013.93 1013.90 1012.65 1013.69 1013.90 1014.69 1015.35 1015.54 1015.72 1015.67 1015.53 1014.93 1014.99 1015.16 1015.35 1015.68
1007.63 1008.62 1009.67 1009.65 1008.94 1008.45 1008.56 1007.93 1008.21 1008.83 1009.64 1010.40 1011.22 1011.10 1011.23 1011.73 1011.99 1012.01 1012.27 1012.15 1012.74 1013.11 1013.26 1013.43 1013.44 1013.74 1014.06 1013.74 1013.88 1013.66 1013.13 1013.19 1014.08 1014.48 1014.84 1014.89 1015.19 1015.02 1015.09 1015.10 1014.66 1014.70 1014.91 1015.10
1007.58 1009.00 1009.70 1010.27 1009.54 1009.28 1008.32 1007.57 1007.90 1008.79 1009.84 1010.22 1010.73 1011.18 1011.36 1011.26 1011.76 1012.01 1012.05 1012.62 1012.76 1013.18 1013.61 1014.02 1014.01 1014.24 1014.58 1014.36 1014.29 1013.95 1013.75 1014.01 1014.61 1014.84 1014.75 1014.80 1014.52 1014.45 1014.60 1014.60 1014.52 1014.14 1014.40 1014.65
1007.34 1008.79 1010.29 1010.68 1010.64 1009.78 1008.54 1007.61 1008.00 1008.80 1010.24 1010.47 1010.68 1011.29 1011.38 1011.24 1011.81 1012.36 1012.38 1012.70 1013.21 1013.44 1013.72 1014.31 1014.90 1015.22 1014.98 1014.78 1014.53 1014.24 1014.22 1014.40 1014.24 1014.53 1014.26 1014.07 1014.37 1014.08 1014.05 1014.33 1015.12 1014.26 1014.50 1014.48
1007.56 1008.44 1009.92 1010.97 1010.71 1009.94 1008.32 1007.78 1007.55 1008.52 1010.34 1010.06 1010.71 1011.20 1011.54 1011.85 1012.69 1012.81 1012.76 1013.06 1013.59 1013.84 1014.26 1014.67 1014.86 1015.10 1015.18 1015.45 1014.94 1014.69 1014.15 1013.80 1014.00 1013.69 1013.65 1013.93 1013.64 1013.62 1013.25 1013.68 1015.18 1014.53 1014.34 1014.69
1008.45 1009.53 1010.27 1010.65 1010.19 1009.25 1007.93 1007.37 1007.97 1009.13 1010.04 1009.88 1010.77 1011.17 1011.63 1012.14 1012.15 1012.39 1013.05 1013.50 1013.68 1014.17 1014.56 1014.70 1015.03 1015.08 1015.09 1015.11 1014.93 1014.49 1014.25 1014.10 1013.70 1013.44 1013.61 1013.56 1013.64 1013.92 1014.27 1014.31 1014.80 1014.96 1014.54 1014.95
1008.55 1009.69 1010.36 1010.56 1009.92 1008.86 1007.42 1007.33 1007.95 1008.76 1009.44 1009.96 1010.46 1010.83 1011.52 1011.84 1012.24 1012.68 1013.24 1013.24 1013.89 1014.50 1014.63 1014.71 1014.90 1015.16 1015.34 1015.43 1014.87 1014.43 1014.25 1014.03 1013.69 1013.72 1013.85 1013.88 1014.01 1014.53 1014.90 1015.28 1015.52 1014.75 1015.01 1015.45
1008.52 1009.18 1009.28 1009.34 1008.73 1007.95 1007.10 1007.47 1007.85 1008.38 1009.14 1010.05 1010.48 1010.88 1011.36 1011.94 1012.17 1012.61 1013.18 1013.79 1014.38 1014.60 1014.69 1014.74 1015.08 1015.43 1015.67 1015.72 1015.41 1014.94 1014.56 1014.22 1013.97 1014.17 1014.38 1014.43 1014.75 1015.12 1015.14 1015.40 1015.63 1015.57 1016.02 1016.53
1008.15 1008.37 1008.84 1008.86 1008.44 1007.81 1007.68 1007.57 1007.82 1008.47 1009.16 1009.64 1010.02 1010.79 1011.38 1011.64 1011.95 1012.52 1013.15 1013.94 1014.29 1014.39 1014.53 1014.82 1015.16 1015.64 1015.86 1015.73 1015.44 1015.11 1014.75 1014.33 1014.34 1014.69 1015.04 1015.43 1015.65 1016.15 1016.69 1016.15 1016.67 1016.43 1016.98 1017.13
1008.05 1008.14 1008.86 1009.04 1008.67 1008.16 1008.02 1007.78 1007.93 1008.45 1008.99 1009.76 1010.37 1010.53 1011.17 1011.78 1012.40 1012.84 1013.46 1013.88 1014.16 1014.30 1014.60 1014.76 1014.90 1015.38 1015.69 1015.82 1015.39 1015.07 1015.04 1014.70 1014.76 1015.24 1015.57 1016.12 1016.34 1016.80 1017.35 1017.82 1018.24 1017.46 1017.81 1018.26
1007.48 1007.75 1008.53 1008.83 1008.49 1008.22 1008.18 1008.02 1008.24 1008.45 1008.99 1009.37 1009.69 1010.45 1010.95 1011.45 1012.31 1013.02 1013.72 1013.98 1014.33 1014.59 1014.71 1014.73 1014.91 1015.33 1015.52 1015.64 1015.73 1015.45 1015.36 1015.20 1015.32 1015.60 1016.04 1016.40 1016.72 1016.95 1017.64 1018.24 1018.86 1018.68 1018.36 1018.36
Thickness
5763 5740 5733 5751 5757 5764 5761 5760 5746 5756 5766 5757 5755 5759 5760 5759 5759 5759 5756 5755 5760 5765 5769 5772 5769 5768 5762 5759 5757 5757 5756 5756 5752 5750 5749 5749 5753 5755 5755 5760 5761 5763 5765 5766
5744 5731 5757 5766 5768 5763 5761 5755 5740 5759 5769 5760 5759 5760 5767 5762 5762 5767 5760 5759 5759 5761 5766 5769 5769 5770 5766 5762 5760 5756 5756 5758 5757 5755 5755 5756 5754 5757 5761 5760 5760 5762 5766 5766
5730 5754 5772 5764 5763 5759 5765 5754 5745 5747 5766 5765 5763 5751 5754 5761 5764 5765 5765 5766 5768 5767 5766 5766 5764 5770 5770 5766 5762 5762 5760 5760 5759 5758 5757 5757 5757 5759 5757 5755 5756 5763 5766 5767
5744 5773 5768 5763 5758 5764 5751 5772 5768 5760 5749 5727 5760 5720 5748 5757 5757 5761 5765 5767 5766 5766 5769 5767 5766 5767 5772 5771 5769 5766 5764 5760 5760 5759 5758 5757 5752 5750 5755 5756 5758 5763 5767 5768
5749 5770 5765 5760 5771 5780 5765 5782 5770 5767 5750 5750 5741 5728 5749 5758 5751 5758 5763 5765 5767 5766 5769 5770 5772 5771 5774 5773 5771 5769 5765 5761 5763 5763 5764 5761 5757 5758 5761 5759 5760 5764 5768 5769
5761 5789 5783 5780 5790 5788 5786 5774 5755 5744 5730 5707 5736 5727 5732 5733 5743 5760 5760 5764 5767 5766 5764 5770 5773 5775 5773 5775 5772 5770 5765 5762 5764 5764 5765 5765 5760 5757 5757 5758 5761 5763 5768 5769
5754 5764 5782 5791 5772 5775 5767 5736 5694 5700 5695 5697 5729 5722 5719 5746 5756 5757 5764 5766 5768 5766 5764 5766 5766 5770 5772 5770 5771 5769 5767 5760 5764 5764 5765 5766 5763 5760 5761 5762 5763 5764 5764 5766
5721 5722 5765 5786 5768 5756 5756 5736 5697 5697 5681 5698 5738 5722 5731 5741 5747 5756 5761 5768 5771 5767 5767 5769 5768 5772 5774 5773 5774 5771 5769 5763 5762 5765 5766 5765 5765 5765 5768 5770 5768 5768 5767 5769
5728 5736 5782 5784 5782 5772 5755 5733 5748 5714 5710 5696 5700 5729 5734 5742 5741 5741 5745 5750 5749 5755 5760 5767 5770 5772 5776 5776 5777 5776 5771 5768 5765 5767 5768 5768 5766 5765 5769 5771 5771 5771 5770 5772
5757 5732 5768 5777 5778 5771 5765 5762 5723 5702 5688 5688 5693 5706 5706 5723 5723 5731 5733 5736 5743 5754 5762 5764 5768 5770 5775 5777 5778 5777 5774 5769 5765 5764 5768 5771 5770 5770 5769 5768 5771 5774 5776 5776
5761 5740 5741 5756 5738 5736 5740 5731 5714 5700 5687 5675 5674 5688 5724 5718 5719 5722 5733 5735 5740 5747 5759 5768 5765 5773 5774 5775 5778 5774 5772 5767 5764 5763 5764 5766 5770 5771 5771 5770 5771 5774 5775 5778
5761 5725 5711 5730 5749 5755 5752 5739 5718 5692 5694 5680 5678 5686 5726 5722 5723 5724 5730 5737 5745 5741 5757 5770 5772 5761 5763 5770 5773 5773 5771 5769 5764 5763 5761 5761 5765 5770 5770 5770 5773 5772 5771 5773
5758 5716 5691 5707 5725 5745 5737 5742 5732 5707 5692 5678 5671 5686 5722 5721 5713 5717 5723 5729 5734 5742 5744 5757 5761 5756 5755 5759 5766 5765 5764 5762 5762 5760 5762 5759 5758 5761 5766 5769 5772 5773 5771 5771
5757 5717 5704 5687 5711 5729 5725 5732 5732 5710 5683 5678 5681 5699 5712 5709 5708 5706 5714 5723 5730 5728 5727 5742 5753 5747 5744 5750 5755 5759 5760 5758 5757 5754 5756 5756 5755 5759 5762 5764 5767 5770 5772 5770
5744 5713 5720 5717 5733 5732 5729 5732 5730 5718 5704 5688 5696 5699 5712 5710 5709 5711 5714 5717 5725 5720 5723 5725 5729 5726 5726 5743 5745 5747 5749 5755 5758 5752 5750 5752 5752 5755 5763 5765 5767 5768 5769 5768
5734 5712 5726 5717 5734 5729 5725 5730 5732 5722 5713 5705 5707 5705 5718 5711 5719 5717 5715 5716 5708 5720 5720 5720 5725 5734 5730 5729 5733 5737 5730 5745 5750 5749 5746 5747 5747 5750 5756 5766 5768 5769 5770 5767
5723 5710 5697 5698 5711 5721 5700 5719 5721 5722 5718 5712 5697 5710 5716 5713 5715 5715 5713 5720 5715 5713 5714 5719 5725 5723 5722 5730 5732 5733 5740 5741 5736 5732 5741 5746 5748 5750 5752 5756 5764 5766 5767 5768
5718 5704 5693 5689 5698 5675 5708 5733 5730 5718 5710 5714 5713 5710 5712 5716 5719 5717 5720 5716 5719 5717 5716 5715 5721 5720 5717 5723 5726 5729 5731 5729 5724 5726 5732 5733 5746 5747 5749 5752 5755 5762 5763 5765
5722 5698 5683 5675 5665 5689 5711 5723 5713 5707 5698 5708 5711 5711 5713 5716 5716 5710 5715 5715 5712 5713 5714 5712 5709 5708 5712 5716 5719 5723 5722 5722 5726 5724 5730 5734 5737 5746 5745 5743 5742 5755 5754 5758
5711 5705 5690 5668 5674 5665 5695 5720 5728 5717 5676 5711 5710 5708 5709 5707 5687 5694 5708 5709 5707 5706 5707 5706 5706 5704 5706 5705 5713 5715 5720 5725 5725 5731 5731 5731 5736 5739 5743 5742 5726 5742 5748 5748
5688 5683 5676 5667 5669 5678 5712 5726 5720 5684 5681 5711 5708 5707 5704 5696 5697 5705 5705 5703 5704 5703 5702 5702 5701 5701 5702 5702 5708 5713 5715 5716 5720 5726 5725 5727 5728 5727 5723 5722 5725 5728 5736 5736
5685 5670 5666 5661 5656 5663 5720 5720 5698 5702 5704 5705 5706 5705 5698 5701 5699 5700 5700 5702 5697 5693 5695 5695 5694 5694 5694 5694 5700 5708 5712 5714 5716 5716 5717 5718 5719 5716 5713 5711 5710 5708 5720 5720
5678 5680 5674 5677 5672 5698 5718 5711 5714 5710 5704 5701 5700 5699 5696 5692 5695 5694 5692 5690 5686 5685 5687 5688 5684 5682 5683 5684 5687 5693 5700 5705 5708 5706 5704 5706 5704 5703 5705 5703 5703 5704 5703 5701
5690 5693 5680 5684 5696 5703 5708 5711 5707 5704 5699 5697 5697 5696 5693 5691 5693 5689 5685 5678 5674 5677 5678 5678 5677 5672 5671 5675 5679 5683 5688 5697 5697 5695 5693 5690 5690 5686 5683 5690 5686 5689 5687 5687
5683 5691 5679 5676 5690 5695 5699 5704 5703 5702 5698 5691 5686 5687 5684 5683 5678 5678 5673 5670 5669 5669 5669 5670 5670 5666 5665 5666 5671 5676 5677 5682 5686 5683 5682 5678 5679 5676 5671 5669 5664 5671 5670 5666
5687 5680 5665 5662 5684 5686 5689 5698 5698 5695 5693 5690 5688 5680 5676 5673 5670 5669 5664 5663 5661 5659 5660 5662 5663 5660 5659 5660 5662 5665 5666 5668 5670 5672 5671 5669 5669 5670 5665 5660 5654 5654 5658 5659